Location: La Tine
(46.4708°N, 7.0525°E)
Time: 07:30:43
(UTC+00:00)

Meteor 1-24 Rocket - Pass Details

Date: 20 January 2021
Orbit: 790 x 927 km, 81.3° (Epoch: 24 February)

Event Time Altitude Azimuth Distance (km) Brightness Sun altitude
Rises 17:39:55 0° 200° (SSW) 3,319 7.3 -13.8°
Reaches altitude 10° 17:42:20 10° 204° (SSW) 2,378 6.6 -14.2°
Maximum altitude 17:47:37 59° 284° (WNW) 916 4.2 -15.1°
Drops below altitude 10° 17:52:52 10° 4° (N) 2,367 5.9 -16.0°
Sets 17:55:17 0° 8° (N) 3,302 6.6 -16.4°
